EW7144 Weather Reports


Display with metric or nautical units.
time (UTC)temp
F
wind
direction
speed
MPH
gust
MPH
rain 1hr
in
rain 24hr
in
rain mn
in
humidity
%
barometer
mb
20260902065405 56 298 12.0 20.0 0.00 0.00 0.00 85 1014.3
20260902064905 56 346 15.0 24.0 0.00 0.00 0.00 85 1014.3
20260902064405 56 348 11.0 23.0 0.00 0.00 0.00 85 1014.4
20260902063905 56 340 10.0 26.0 0.00 0.00 0.00 86 1014.4
20260902063405 56 326 10.0 26.0 0.00 0.00 0.00 86 1014.6
20260902062906 56 309 9.0 20.0 0.00 0.00 0.00 86 1014.6
20260902062409 56 316 9.0 21.0 0.00 0.00 0.00 87 1014.6
20260902061906 56 330 7.0 20.0 0.00 0.00 0.00 87 1014.7
20260902061405 56 339 8.0 17.0 0.00 0.00 0.00 87 1014.7
20260902060905 56 337 6.0 15.0 0.00 0.00 0.00 87 1014.7
20260902060405 56 294 9.0 24.0 0.00 0.00 0.00 87 1014.7
20260902055905 56 316 9.0 16.0 0.00 0.00 0.00 87 1014.5
20260902055405 56 290 6.0 14.0 0.00 0.00 0.00 87 1014.6
20260902054405 56 318 7.0 18.0 0.00 0.00 0.00 87 1014.6
20260902053905 56 275 7.0 16.0 0.00 0.00 0.00 87 1014.7
20260902052906 56 340 5.0 13.0 0.00 0.00 0.00 87 1014.6
20260902052405 56 314 8.0 17.0 0.00 0.00 0.00 87 1014.6
20260902051905 56 321 5.0 20.0 0.00 0.00 0.00 87 1014.6
20260902050904 56 346 9.0 16.0 0.00 0.00 0.00 86 1014.5
20260902050404 56 338 7.0 18.0 0.00 0.00 0.00 86 1014.5
20260902045905 56 344 9.0 18.0 0.00 0.00 0.00 86 1014.6
20260902045405 56 333 9.0 20.0 0.00 0.00 0.00 87 1014.6
20260902044905 56 314 7.0 17.0 0.00 0.00 0.00 87 1014.5
20260902044404 56 313 6.0 13.0 0.00 0.00 0.00 87 1014.5
20260902043905 56 282 8.0 14.0 0.00 0.00 0.00 87 1014.6
20260902043405 55 240 6.0 16.0 0.00 0.00 0.00 87 1014.7
20260902042905 55 300 5.0 13.0 0.00 0.00 0.00 87 1014.7
20260902042405 55 333 6.0 14.0 0.00 0.00 0.00 87 1014.7
20260902041905 55 304 5.0 10.0 0.00 0.00 0.00 87 1014.7
20260902041405 55 317 8.0 16.0 0.00 0.00 0.00 87 1014.8
20260902040905 55 312 6.0 15.0 0.00 0.00 0.00 86 1014.7
20260902040405 55 290 6.0 16.0 0.00 0.00 0.00 86 1014.8
20260902035905 55 290 7.0 13.0 0.00 0.00 0.00 86 1014.8
20260902035405 55 300 4.0 14.0 0.00 0.00 0.00 85 1014.9
20260902034405 55 302 5.0 13.0 0.00 0.00 0.00 83 1015.0
20260902033905 56 309 6.0 14.0 0.00 0.00 0.00 81 1015.0
20260902033405 56 335 6.0 12.0 0.00 0.00 0.00 80 1014.8
20260902032908 57 278 5.0 15.0 0.00 0.00 0.00 79 1014.9
20260902032405 57 338 7.0 13.0 0.00 0.00 0.00 78 1014.9
20260902031405 58 231 6.0 15.0 0.00 0.00 0.00 77 1015.0
20260902030905 58 282 6.0 14.0 0.00 0.00 0.00 76 1015.0
20260902030404 59 217 4.0 20.0 0.00 0.00 0.00 76 1014.9
20260902025904 59 306 6.0 20.0 0.00 0.00 0.00 74 1015.0
20260902025405 60 293 7.0 15.0 0.00 0.00 0.00 74 1014.9
20260902024905 60 311 7.0 17.0 0.00 0.00 0.00 74 1014.9
20260902024404 59 280 10.0 24.0 0.00 0.00 0.00 74 1014.9
20260902022905 60 255 7.0 20.0 0.00 0.00 0.00 75 1014.9
20260902022405 60 289 9.0 20.0 0.00 0.00 0.00 75 1014.9
20260902021905 60 312 8.0 21.0 0.00 0.00 0.00 76 1014.9
20260902021405 59 313 9.0 20.0 0.00 0.00 0.00 75 1014.9
20260902020905 59 308 8.0 22.0 0.00 0.00 0.00 75 1014.8
20260902015405 60 296 10.0 22.0 0.00 0.00 0.00 74 1014.8
20260902014905 60 290 7.0 20.0 0.00 0.00 0.00 75 1014.7
20260902014405 59 324 9.0 21.0 0.00 0.00 0.00 74 1014.7
20260902013905 59 333 9.0 18.0 0.00 0.00 0.00 75 1014.7
20260902012906 59 295 9.0 22.0 0.00 0.00 0.00 75 1014.7
20260902012405 59 212 8.0 17.0 0.00 0.00 0.00 75 1014.9
20260902011905 59 312 7.0 22.0 0.00 0.00 0.00 76 1014.9
20260902011405 59 292 10.0 21.0 0.00 0.00 0.00 75 1014.9
20260902010405 59 305 6.0 20.0 0.00 0.00 0.00 75 1015.1
20260902005406 59 349 9.0 17.0 0.00 0.00 0.00 74 1015.2
20260902004905 59 315 10.0 20.0 0.00 0.00 0.00 75 1015.2
20260902004406 59 340 10.0 26.0 0.00 0.00 0.00 74 1015.3
20260902003406 59 251 9.0 24.0 0.00 0.00 0.00 74 1015.4
20260902002905 59 273 9.0 18.0 0.00 0.00 0.00 74 1015.3
20260902002406 59 282 10.0 23.0 0.00 0.00 0.00 73 1015.4
20260902001905 59 319 8.0 21.0 0.00 0.00 0.00 73 1015.3
20260902001405 59 326 9.0 20.0 0.00 0.00 0.00 73 1015.4
20260902000905 59 294 9.0 21.0 0.00 0.00 0.00 73 1015.4
20260902000406 59 338 12.0 20.0 0.00 0.00 0.00 73 1015.4
20260901235905 60 284 10.0 20.0 0.00 0.00 0.00 71 1015.4
20260901235407 60 284 9.0 20.0 0.00 0.00 0.00 71 1015.3
20260901234906 60 323 8.0 18.0 0.00 0.00 0.00 71 1015.4
20260901234406 60 334 5.0 16.0 0.00 0.00 0.00 72 1015.3
20260901233905 60 249 10.0 17.0 0.00 0.00 0.00 71 1015.3
20260901233405 60 263 7.0 20.0 0.00 0.00 0.00 72 1015.3
20260901232405 59 303 6.0 20.0 0.00 0.00 0.00 74 1015.4
20260901230905 59 273 6.0 14.0 0.00 0.00 0.00 74 1015.6
20260901230406 59 254 6.0 18.0 0.00 0.00 0.00 74 1015.7
20260901225905 59 257 9.0 20.0 0.00 0.00 0.00 74 1015.5
20260901225407 59 267 7.0 16.0 0.00 0.00 0.00 76 1015.6
20260901224905 59 266 7.0 17.0 0.00 0.00 0.00 76 1015.7
20260901224406 58 232 7.0 26.0 0.00 0.00 0.00 76 1015.8
20260901223906 58 221 9.0 17.0 0.00 0.00 0.00 75 1015.7
20260901223405 58 246 6.0 21.0 0.00 0.00 0.00 76 1015.6
20260901222405 58 259 7.0 21.0 0.00 0.00 0.00 75 1015.6
20260901221905 58 308 9.0 20.0 0.00 0.00 0.00 75 1015.6
20260901221405 58 300 6.0 17.0 0.00 0.00 0.00 76 1015.6
20260901220906 57 348 5.0 17.0 0.00 0.00 0.00 75 1015.6
20260901220405 57 293 8.0 21.0 0.00 0.00 0.00 75 1015.5
20260901215906 57 274 9.0 20.0 0.00 0.00 0.00 75 1015.5
20260901215406 57 329 8.0 21.0 0.00 0.00 0.00 75 1015.5
20260901214405 57 335 8.0 21.0 0.00 0.00 0.00 76 1015.6
20260901213405 57 334 8.0 18.0 0.00 0.00 0.00 75 1015.6
20260901212905 57 337 8.0 23.0 0.00 0.00 0.00 75 1015.4
20260901212405 56 294 7.0 25.0 0.00 0.00 0.00 75 1015.4
20260901211905 56 310 6.0 20.0 0.00 0.00 0.00 75 1015.5
20260901211405 56 294 7.0 16.0 0.00 0.00 0.00 75 1015.5
20260901210405 56 270 5.0 18.0 0.00 0.00 0.00 75 1015.6
20260901205905 55 306 5.0 12.0 0.00 0.00 0.00 75 1015.7
20260901205407 55 203 5.0 21.0 0.00 0.00 0.00 75 1015.8
20260901204906 55 239 6.0 18.0 0.00 0.00 0.00 75 1015.9
20260901204405 54 216 6.0 13.0 0.00 0.00 0.00 76 1015.8
20260901203904 54 205 8.0 15.0 0.00 0.00 0.00 76 1015.8
20260901202906 53 210 7.0 25.0 0.00 0.00 0.00 78 1015.8
20260901202405 52 215 7.0 18.0 0.00 0.00 0.00 79 1015.9
20260901201905 52 223 6.0 12.0 0.00 0.00 0.00 79 1016.0
20260901201406 52 214 6.0 18.0 0.00 0.00 0.00 80 1016.0
20260901200905 51 293 6.0 12.0 0.00 0.00 0.00 80 1016.0
20260901200405 51 320 5.0 13.0 0.00 0.00 0.00 81 1016.1
20260901195904 51 225 4.0 10.0 0.00 0.00 0.00 81 1016.0
20260901194905 51 224 4.0 13.0 0.00 0.00 0.00 81 1015.9
20260901194405 51 233 6.0 15.0 0.00 0.00 0.00 81 1015.8
20260901193905 51 223 6.0 13.0 0.00 0.00 0.00 81 1015.8
20260901193405 51 315 7.0 23.0 0.00 0.00 0.00 82 1015.7
20260901192906 51 218 4.0 13.0 0.00 0.00 0.00 82 1015.6
20260901191905 51 200 5.0 20.0 0.00 0.00 0.00 83 1015.6
20260901191405 51 216 9.0 20.0 0.00 0.00 0.00 83 1015.4
20260901190905 51 350 3.0 12.0 0.00 0.00 0.00 83 1015.5
20260901190406 51 269 4.0 12.0 0.00 0.00 0.00 83 1015.5
20260901185905 51 226 6.0 13.0 0.00 0.00 0.00 83 1015.6
20260901185405 51 290 3.0 12.0 0.00 0.00 0.00 84 1015.5
20260901184905 51 235 5.0 14.0 0.00 0.00 0.00 84 1015.4
20260901184405 51 261 5.0 13.0 0.00 0.00 0.00 84 1015.5
20260901183905 52 282 6.0 16.0 0.00 0.00 0.00 84 1015.5
20260901183405 52 214 7.0 16.0 0.00 0.00 0.00 83 1015.7
20260901182905 51 256 6.0 14.0 0.00 0.00 0.00 83 1015.4
20260901182404 51 280 3.0 12.0 0.00 0.00 0.00 83 1015.4
20260901181905 51 276 3.0 13.0 0.00 0.00 0.00 83 1015.3
20260901180905 51 225 4.0 15.0 0.00 0.00 0.00 83 1015.4
20260901180405 51 297 5.0 13.0 0.00 0.00 0.00 83 1015.3
20260901175905 51 278 3.0 9.0 0.00 0.00 0.00 82 1015.3
20260901175405 50 270 5.0 9.0 0.00 0.00 0.00 82 1015.3
20260901174405 51 293 2.0 10.0 0.00 0.00 0.00 82 1015.2
20260901173905 51 239 4.0 10.0 0.00 0.00 0.00 81 1015.2
20260901173405 51 230 6.0 12.0 0.00 0.00 0.00 81 1015.2
20260901172905 51 218 6.0 17.0 0.00 0.00 0.00 81 1015.3
20260901172405 51 198 6.0 15.0 0.00 0.00 0.00 82 1015.3
20260901171905 51 219 6.0 14.0 0.00 0.00 0.00 82 1015.2
20260901171405 51 305 7.0 16.0 0.00 0.00 0.00 82 1015.1
20260901170904 51 265 6.0 17.0 0.00 0.00 0.00 83 1014.9
20260901170404 50 244 5.0 17.0 0.00 0.00 0.00 84 1014.9
20260901165905 51 202 6.0 14.0 0.00 0.00 0.00 84 1014.9
20260901164905 51 228 4.0 10.0 0.00 0.00 0.00 84 1014.8
20260901163904 51 210 6.0 15.0 0.00 0.00 0.00 83 1014.7
20260901162905 51 236 6.0 16.0 0.00 0.00 0.00 83 1014.7
20260901162405 51 218 7.0 15.0 0.00 0.00 0.00 83 1014.7
20260901161905 51 205 7.0 20.0 0.00 0.00 0.00 83 1014.7
20260901160905 52 203 7.0 22.0 0.00 0.00 0.00 83 1014.7
20260901160405 52 185 7.0 20.0 0.00 0.00 0.00 83 1014.8
20260901155905 52 208 7.0 15.0 0.00 0.00 0.00 83 1014.7
20260901155405 52 249 8.0 18.0 0.00 0.00 0.00 83 1014.6
20260901154905 52 190 8.0 15.0 0.00 0.00 0.00 83 1014.7
20260901154405 51 216 9.0 22.0 0.00 0.00 0.00 83 1014.7
20260901153904 51 204 7.0 17.0 0.00 0.00 0.00 83 1014.6
20260901153405 52 211 8.0 17.0 0.00 0.00 0.00 83 1014.6
20260901152905 51 217 9.0 21.0 0.00 0.00 0.00 83 1014.6
20260901152404 51 254 7.0 20.0 0.00 0.00 0.00 83 1014.6
20260901151905 51 239 7.0 20.0 0.00 0.00 0.00 83 1014.7
20260901151405 51 283 7.0 17.0 0.00 0.00 0.00 84 1014.8
20260901150905 51 228 6.0 18.0 0.00 0.00 0.00 83 1014.6
20260901150405 51 196 5.0 16.0 0.00 0.00 0.00 83 1014.8
20260901145904 51 230 7.0 15.0 0.00 0.00 0.00 82 1014.8
20260901144905 51 209 7.0 17.0 0.00 0.00 0.00 82 1014.9
20260901143905 51 190 5.0 12.0 0.00 0.00 0.00 82 1015.0
20260901142405 51 224 6.0 12.0 0.00 0.00 0.00 81 1015.1
20260901141904 51 204 7.0 13.0 0.00 0.00 0.00 81 1015.0
20260901141405 51 225 7.0 15.0 0.00 0.00 0.00 81 1015.1
20260901140905 51 212 5.0 17.0 0.00 0.00 0.00 81 1015.1
20260901140405 51 225 6.0 14.0 0.00 0.00 0.00 81 1015.2
20260901135904 51 212 7.0 15.0 0.00 0.00 0.00 81 1015.2
20260901135404 51 207 7.0 15.0 0.00 0.00 0.00 81 1015.2
20260901134905 51 208 7.0 15.0 0.00 0.00 0.00 81 1015.2
20260901133904 51 216 7.0 16.0 0.00 0.00 0.00 82 1015.3
20260901133405 51 197 8.0 18.0 0.00 0.00 0.00 82 1015.1
20260901132905 51 220 7.0 20.0 0.00 0.00 0.00 82 1015.0
20260901132404 50 232 9.0 22.0 0.00 0.00 0.00 82 1015.0
20260901131905 50 213 9.0 21.0 0.00 0.00 0.00 82 1015.0
20260901130904 50 217 6.0 12.0 0.00 0.00 0.00 83 1015.0
20260901130405 50 241 5.0 13.0 0.00 0.00 0.00 83 1015.1
20260901125905 50 213 7.0 17.0 0.00 0.00 0.00 83 1015.2
20260901125405 50 198 7.0 14.0 0.00 0.00 0.00 84 1015.1
20260901124904 50 219 9.0 20.0 0.00 0.00 0.00 84 1015.1
20260901124405 50 227 6.0 14.0 0.00 0.00 0.00 84 1015.3
20260901123904 50 227 7.0 14.0 0.00 0.00 0.00 85 1015.1
20260901123405 50 202 6.0 16.0 0.00 0.00 0.00 85 1015.0
20260901122905 50 217 9.0 16.0 0.00 0.00 0.00 85 1015.1
20260901122405 50 218 6.0 15.0 0.00 0.00 0.00 85 1015.2
20260901121905 50 197 7.0 17.0 0.00 0.00 0.00 85 1015.2
20260901121405 50 196 7.0 17.0 0.00 0.00 0.00 85 1015.3
20260901120904 50 229 9.0 20.0 0.00 0.00 0.00 85 1015.3
20260901120404 50 221 9.0 20.0 0.00 0.00 0.00 86 1015.1
20260901115905 50 228 7.0 16.0 0.00 0.01 0.00 85 1015.2
20260901115405 50 220 7.0 18.0 0.00 0.01 0.00 85 1015.1
20260901114904 50 250 7.0 17.0 0.00 0.01 0.00 85 1015.2
20260901113904 50 238 6.0 17.0 0.00 0.01 0.00 84 1015.3
20260901113405 50 201 7.0 16.0 0.00 0.01 0.00 84 1015.3
20260901112904 50 243 5.0 14.0 0.00 0.01 0.00 83 1015.4
20260901112404 50 275 5.0 17.0 0.00 0.01 0.00 82 1015.4
20260901111904 50 232 6.0 13.0 0.00 0.01 0.00 82 1015.5
20260901111405 50 248 7.0 21.0 0.00 0.01 0.00 81 1015.6
20260901110905 50 201 6.0 14.0 0.00 0.01 0.00 80 1015.6
20260901110404 50 223 7.0 16.0 0.00 0.01 0.00 80 1015.7
20260901105905 50 203 6.0 14.0 0.00 0.01 0.00 80 1015.7
20260901105405 50 207 7.0 14.0 0.00 0.01 0.00 79 1015.7
20260901104905 50 229 7.0 18.0 0.00 0.01 0.00 79 1015.6
20260901104405 50 212 7.0 18.0 0.00 0.01 0.00 78 1015.6
20260901103405 50 211 6.0 15.0 0.00 0.01 0.00 78 1015.7
20260901102904 51 217 7.0 18.0 0.00 0.01 0.00 77 1015.7
20260901102404 51 212 7.0 16.0 0.00 0.01 0.00 77 1015.6
20260901101904 51 216 7.0 18.0 0.00 0.01 0.00 77 1015.6
20260901101406 50 224 8.0 21.0 0.00 0.01 0.00 76 1015.5
20260901100906 51 199 9.0 20.0 0.00 0.01 0.00 76 1015.5
20260901100407 51 211 8.0 16.0 0.00 0.01 0.00 76 1015.5
20260901095904 50 215 8.0 16.0 0.00 0.01 0.00 76 1015.5
20260901095405 50 201 7.0 22.0 0.00 0.01 0.00 76 1015.5
20260901094905 50 201 7.0 13.0 0.00 0.01 0.00 76 1015.5
20260901094406 50 217 6.0 14.0 0.00 0.01 0.00 76 1015.5
20260901093905 50 219 7.0 15.0 0.00 0.01 0.00 75 1015.6
20260901093404 50 245 6.0 15.0 0.00 0.01 0.00 75 1015.6
20260901092905 50 263 6.0 14.0 0.00 0.01 0.00 76 1015.4
20260901091905 50 221 5.0 17.0 0.00 0.01 0.00 75 1015.3
20260901091405 50 230 5.0 14.0 0.00 0.01 0.00 76 1015.3
20260901084906 51 227 6.0 18.0 0.00 0.01 0.00 76 1015.2
20260901084405 51 213 8.0 17.0 0.00 0.01 0.00 77 1015.0
20260901083905 50 280 7.0 15.0 0.00 0.01 0.00 77 1015.0
20260901083405 50 208 7.0 14.0 0.00 0.01 0.00 77 1014.9
20260901082906 50 221 9.0 16.0 0.00 0.01 0.00 77 1014.8
20260901082404 50 197 7.0 15.0 0.00 0.01 0.00 77 1014.8
20260901081904 50 228 7.0 15.0 0.00 0.01 0.00 77 1014.7
20260901081405 50 220 6.0 16.0 0.00 0.01 0.00 77 1014.8
20260901080905 50 202 8.0 16.0 0.00 0.01 0.00 77 1014.8
20260901080404 50 215 7.0 21.0 0.00 0.01 0.00 77 1014.8
20260901075904 50 224 9.0 18.0 0.00 0.01 0.00 77 1014.8
20260901075404 50 243 7.0 15.0 0.00 0.01 0.00 77 1014.8
20260901074904 50 225 7.0 17.0 0.00 0.01 0.00 77 1014.8
20260901074405 50 237 8.0 16.0 0.00 0.01 0.00 77 1014.8
20260901073904 50 284 6.0 14.0 0.00 0.01 0.00 77 1014.8
20260901073405 50 240 6.0 20.0 0.00 0.01 0.00 77 1014.7
20260901072904 50 246 6.0 18.0 0.00 0.01 0.00 77 1014.7
20260901071905 50 200 6.0 15.0 0.00 0.02 0.00 77 1014.6
20260901071405 50 261 6.0 13.0 0.00 0.02 0.00 76 1014.6
20260901070405 51 197 5.0 12.0 0.00 0.02 0.00 76 1014.6
20260901065905 51 197 9.0 20.0 0.00 0.02 0.00 75 1014.5